Flag for U.S.A. Weather past 2 weeks in Racine, Wisconsin, U.S.A.

Now
61 °F

Sunny.


Feels Like: 61 °F
Forecast: 52 / 67 °F
Wind: 13 mph from North

Location: Batten International Airport

Current Time: Jul 2, 2015 at 6:26:30 PM

Latest Report: Jul 2, 2015 at 5:53 PM


Visibility: 10 mi

Pressure: 30.03 "Hg

Humidity: 62%

Dew point: 48 °F

Location of RacineLocation

Historic Weather in Racine — Graph

°F

Racine temperature yesterday

Maximum temperature yesterday: 63 °F (at 11:53 AM)
Minimum temperature yesterday: 51 °F (at 10:53 PM)
Average temperature yesterday: 57 °F

Past Weeks' High & Low Weather Summary

 TemperatureHumidityPressure
High81 °F (Jun 18, 12:53 PM)94% (Jun 18, 4:53 AM)30.17 "Hg (Jun 18, 4:53 AM)
Low50 °F (Jun 19, 2:53 AM)39% (Jun 28, 3:53 PM)29.67 "Hg (Jun 22, 1:53 PM)
Average64 °F74%29.96 "Hg
* Reported Jun 17 4:53 PM — Jul 2 4:53 PM, Racine, Weather by CustomWeather, © 2015

Note: Actual official high and low records may vary slightly from our data, if they occured in-between our weather recording intervals... More about our weather records

Advertising

Racine weather history for previous 24 hours

 ConditionsComfort  
Time TempWeatherWind HumidityBarometerVisibility
4:53 PM
Thu, Jul 2
63 °FSunny.8 mph58%30.03 "Hg10 mi
3:53 PM64 °FSunny.12 mph58%30.03 "Hg10 mi
2:53 PM64 °FSunny.13 mph63%30.04 "Hg10 mi
1:53 PM64 °FSunny.9 mph61%30.05 "Hg10 mi
12:53 PM64 °FSunny.10 mph63%30.06 "Hg10 mi
11:53 AM63 °FSunny.9 mph65%30.06 "Hg10 mi
10:53 AM63 °FSunny.10 mph63%30.06 "Hg10 mi
9:53 AM61 °FSunny.10 mph70%30.06 "Hg10 mi
8:53 AM59 °FSunny.13 mph75%30.06 "Hg10 mi
7:53 AM57 °FSunny.8 mph81%30.06 "Hg10 mi
6:53 AM55 °FSunny.8 mph83%30.03 "Hg10 mi
5:53 AM53 °FClear.9 mph86%30.02 "Hg10 mi
4:53 AM51 °FClear.7 mph86%30.03 "Hg10 mi
3:53 AM53 °FClear.8 mph83%30.03 "Hg10 mi
2:53 AM54 °FClear.9 mph80%30.02 "Hg10 mi
1:53 AM54 °FClear.10 mph77%30.02 "Hg10 mi
12:53 AM53 °FClear.7 mph80%30.02 "Hg10 mi
11:53 PM
Wed, Jul 1
53 °FClear.7 mph83%30.02 "Hg10 mi
10:53 PM51 °FClear.6 mph89%30.03 "Hg10 mi
9:53 PM53 °FClear.5 mph86%30.03 "Hg10 mi
8:53 PM55 °FSunny.No wind80%30.03 "Hg10 mi
7:53 PM56 °FSunny.No wind77%30.02 "Hg10 mi
6:53 PM55 °FSunny.8 mph80%30.01 "Hg10 mi
Weather by CustomWeather, © 2015

See weather overviewHow to use our weather pages